Other Public Products
Issued by NWS Charleston, SC

Current Version | Previous Version | Graphics & Text | Print | Product List | Glossary On
Versions: 1 2 3 4 5 6 7 8 9 10 11 12 13 14 15 16 17 18 19 20 21 22 23 24 25 26 27 28 29 30 31 32 33 34 35 36 37 38 39 40 41 42 43 44 45 46 47 48 49 50
000 FPUS82 KCHS 231613 OPUCHS TEST...KCHS/KSAV Gateway Observations...TEST National Weather Service Charleston SC 1100 AM EST TUE JAN 23 2018 NOTE: "fair" indicates few or no clouds below 12,000 feet with no significant weather and/or obstructions to visibility. SCZ050-WAZ558-NCZ071-TXZ119-213-PAZ071-DCZ001-FLZ074-172-MI076- NYZ176-178-MAZ016-IL014-TNZ027-NJZ106-GAZ044-MD014-231700- ...Gateway Observations for Charleston International... CITY SKY/WX TMP DP RH WIND PRES REMARKS Chas Airport PTSUNNY 69 64 84 SW14 29.93F Seattle LGT RAIN 42 35 76 SW5 30.00F Charlotte FAIR 61 37 41 SW18G38 29.84S Dallas DFW MOSUNNY 45 20 36 NW9 30.30R Dallas Love MOSUNNY 45 20 36 NW7 30.31R Philladelphia PTSUNNY 58 56 93 S8 29.61F Wash National FAIR 66 60 81 SW13 29.63F Baltimore LGT RAIN 59 56 89 NW9 29.62F Miami PTSUNNY 81 72 74 S12 30.08F Detroit CLOUDY 38 34 85 SW21G28 29.58R WCI 28 Newark CLOUDY 60 57 89 S10 29.62F Laguardia LGT RAIN 54 52 93 S15G21 29.63F J F K CLOUDY 52 52 100 S30G37 29.65F Boston Logan RAIN 34 34 100 N5 29.77F VSB 1/4 WCI 30 Ft. Lauderdale PTSUNNY 78 73 84 S12 30.07S Chicago O`Hare CLOUDY 31 26 82 NW15 29.78R WCI 20 Chicago Midway CLOUDY 32 28 85 NW14G20 29.79R WCI 22 Houston Bush PTSUNNY 57 29 34 N12 30.30R Houston Hobby PTSUNNY 56 27 32 N12 30.30R Nashville FAIR 48 29 47 W8 30.00R Atlanta PTSUNNY 48 32 53 W17 30.02R $$ GAZ044-118-TXZ119-213-NCZ071-DCZ001-MDZ014-506-PAZ021-071-NJZ106- NYZ176-178-MAZ106-OHZ011-021-055-MIZ076-KYZ091-ILZ014-INZ047- MNZ060-ONZ431-231700- ...Gateway Observations for Savannah International... CITY SKY/WX TMP DP RH WIND PRES REMARKS Savannah Arpt PTSUNNY 72 64 78 W14 29.96F Atlanta PTSUNNY 48 32 53 W17 30.02R Charlotte FAIR 61 37 41 SW18G38 29.84S Dallas DFW MOSUNNY 45 20 36 NW9 30.30R Houston Bush PTSUNNY 57 29 34 N12 30.30R Wash National FAIR 66 60 81 SW13 29.63F Wash Dulles PTSUNNY 59 55 87 N5 29.65F Baltimore LGT RAIN 59 56 89 NW9 29.62F Philadelphia PTSUNNY 58 56 93 S8 29.61F Newark CLOUDY 60 57 89 S10 29.62F Laguardia LGT RAIN 54 52 93 S15G21 29.63F J F K CLOUDY 52 52 100 S30G37 29.65F Boston RAIN 34 34 100 N5 29.77F VSB 1/4 WCI 30 Pittsburg LGT RAIN 46 32 58 SW20G29 29.66R Akron CLOUDY 40 32 73 SW17 29.67R WCI 31 Cleveland LGT RAIN 40 36 86 SW16G26 29.67R WCI 31 Cincinnati CLOUDY 38 33 82 SW14G24 29.84R WCI 30 Columbus CLOUDY 37 35 92 SW20 29.78R WCI 27 Detroit CLOUDY 38 34 85 SW21G28 29.58R WCI 28 Chicago O`Hare CLOUDY 31 26 82 NW15 29.78R WCI 20 Minneapolis PTSUNNY 18 13 80 NW14 30.03R WCI 4 Indianapolis DRIZZLE 35 33 92 SW16 29.82R FOG WCI 25 Toronto Canada MOSUNNY 43 43 100 W18G24 29.48S $$

USA.gov is the U.S. government's official web portal to all federal, state and local government web resources and services.